Home > Products > Valid Products > RWR

000
ASUS45 KSLC 261110
RWRUT

UTAH REGIONAL WEATHER ROUNDUP
NATIONAL WEATHER SERVICE SALT LAKE CITY UT
500 AM MDT THU MAY 26 2016

UTZ001>011-023>025-261200-

NORTHERN UTAH

CITY           SKY/WX    TMP DP  RH WIND       PRES   REMARKS
BRIGHAM CITY     N/A     44  40  83 NW5       30.01S
HILL AFB       CLEAR     45  39  80 E6        30.00F
LOGAN          CLEAR     39  37  92 CALM      30.04S
OGDEN          CLEAR     46  41  82 VRB3      29.99F
PROVO AIRPORT  CLEAR     46  37  71 CALM      30.00S
SALT LAKE CITY PTCLDY    50  43  77 W5        29.99F
VERNAL         CLOUDY    44  34  67 W6        29.99F
WENDOVER       CLOUDY    55  36  47 NW10      30.01F
HEBER CITY     CLEAR     34  32  93 CALM      30.02S
WEST JORDAN    CLEAR     46  43  87 NW5       30.01S

$$

UTZ012>022-026-027-261200-

SOUTHERN/CENTRAL UTAH

CITY           SKY/WX    TMP DP  RH WIND       PRES   REMARKS
BLANDING       CLEAR     43  19  38 N10       30.01S
BRYCE CANYON   PTCLDY    36  25  64 NW8       30.04F WCI  30
CEDAR CITY     MOCLDY    41  29  62 S3        30.00F
DELTA          PTCLDY    45  39  81 N6        30.00S
MILFORD        CLEAR     39  32  76 CALM      30.00S
MOAB/CYNLANDS  MOCLDY    56  25  30 CALM      29.86F
PRICE          CLEAR     49  26  41 CALM      29.96F
ST GEORGE      SUNNY     63  27  25 NW5       29.91S

$$

REGIONAL REPORTS     COLORADO/ARIZONA

CITY           SKY/WX    TMP DP  RH WIND       PRES   REMARKS
CRAIG, CO      CLOUDY    36  32  85 CALM      30.05F
GRAND JUNCTION CLOUDY    49  25  39 NE10      29.91F
RIFLE          CLOUDY    40  31  70 SE3       29.98S
MONTROSE       PTCLDY    51  22  31 E8        29.97S
CORTEZ         CLOUDY    42  24  49 NE6       29.98S
PAGE, AZ       PTCLDY    62  24  23 NW5       29.88F
GRAND CANYON   MOCLDY    37  26  64 CALM      30.03S
KINGMAN        CLEAR     49  32  52 MISG      29.94S
FLAGSTAFF      PTCLDY    37  23  56 CALM      30.03S

$$

REGIONAL REPORTS    NEVADA/IDAHO/WYOMING

CITY           SKY/WX    TMP DP  RH WIND       PRES   REMARKS
LAS VEGAS, NV  CLEAR     63  33  32 SW5       29.86R
ELY            CLOUDY    37  36  96 S3        30.09S
ELKO           FOG       36  34  92 CALM      30.08F VSB 1/4
POCATELLO, ID  CLEAR     38  37  97 CALM      30.04F
BURLEY         CLEAR     42  37  82 CALM      30.02S
EVANSTON, WY   CLEAR     37  33  85 VRB3      30.08S
ROCK SPRINGS   CLEAR     34  32  92 S7        30.06S WCI  28
KEMMERER         N/A     32  32 100 NW7       30.08F WCI  26

$$






000
ASUS45 KSLC 260510
RWRUT

UTAH REGIONAL WEATHER ROUNDUP
NATIONAL WEATHER SERVICE SALT LAKE CITY UT
1100 PM MDT WED MAY 25 2016

UTZ001>011-023>025-260600-

NORTHERN UTAH

CITY           SKY/WX    TMP DP  RH WIND       PRES   REMARKS
BRIGHAM CITY     N/A     53  42  66 W3        30.05R
HILL AFB       CLEAR     53  42  66 N3        30.05R
LOGAN          CLEAR     47  42  83 CALM      30.06R
OGDEN          CLEAR     53  44  71 N6        30.04R
PROVO AIRPORT  CLOUDY    57  43  58 N8        30.03S
SALT LAKE CITY MOCLDY    59  44  57 N6        30.04R
VERNAL         CLOUDY    53  34  48 NE9       30.02R
WENDOVER       MOCLDY    55  37  50 NW15      30.05R
HEBER CITY     MOCLDY    46  34  61 N3        30.07R
WEST JORDAN    MOCLDY    54  41  62 W6        30.05R

$$

UTZ012>022-026-027-260600-

SOUTHERN/CENTRAL UTAH

CITY           SKY/WX    TMP DP  RH WIND       PRES   REMARKS
BLANDING       CLEAR     53  22  31 N5        30.06R
BRYCE CANYON   CLOUDY    45  20  36 W10       30.08R
CEDAR CITY     CLOUDY    55  21  26 NE3       30.02R
DELTA          CLOUDY    55  36  47 N15       30.02F
HANKSVILLE     CLOUDY    63  12  14 CALM      29.92R
MILFORD        MOCLDY    53  33  46 NW12      30.02R
MOAB/CYNLANDS  PTCLDY    56  13  18 SW3       29.89S
PRICE          MOCLDY    53  26  35 N10       30.00S
ST GEORGE      MOCLDY    72  21  15 SW5       29.93R
KANAB          MOCLDY    63  23  22 W9        30.01R

$$

REGIONAL REPORTS     COLORADO/ARIZONA

CITY           SKY/WX    TMP DP  RH WIND       PRES   REMARKS
CRAIG, CO      CLEAR     49  32  52 SW5       30.08R
GRAND JUNCTION CLEAR     56  18  22 SE5       29.94R
RIFLE          CLEAR     53  24  32 VRB6      30.00R
MONTROSE       PTCLDY    59  21  23 SE6       30.00F
CORTEZ         CLOUDY    50  26  39 E7        30.01R
PAGE, AZ       MOCLDY    69  22  16 W5        29.92R
GRAND CANYON   PTCLDY    42  19  39 CALM      30.07S
KINGMAN        CLOUDY    61  32  33 MISG      29.96S
FLAGSTAFF      PTCLDY    40  20  44 CALM      30.08S

$$

REGIONAL REPORTS    NEVADA/IDAHO/WYOMING

CITY           SKY/WX    TMP DP  RH WIND       PRES   REMARKS
LAS VEGAS, NV  PTCLDY    70  35  27 NW9       29.88R
ELY            CLOUDY    43  38  82 N12       30.15R
ELKO           MOCLDY    47  43  86 CALM      30.10R
POCATELLO, ID  CLOUDY    47  42  83 S7        30.05R
BURLEY         CLOUDY    53  42  66 SW10      30.03R
EVANSTON, WY   CLOUDY    43  35  73 SE5       30.12R
ROCK SPRINGS   CLOUDY    43  34  70 SW15      30.10S
KEMMERER         N/A     39  34  81 S3        30.12S

$$






000
ASUS45 KSLC 260110
RWRUT

UTAH REGIONAL WEATHER ROUNDUP
NATIONAL WEATHER SERVICE SALT LAKE CITY UT
700 PM MDT WED MAY 25 2016

UTZ001>011-023>025-260200-

NORTHERN UTAH

CITY           SKY/WX    TMP DP  RH WIND       PRES   REMARKS
BRIGHAM CITY     N/A     62  38  42 N10       30.01F
HILL AFB       SUNNY     60  41  49 N12       30.02R
LOGAN          PTSUNNY   55  43  63 N6        30.03F
OGDEN          MOSUNNY   61  41  47 N15G22    30.00S
PROVO AIRPORT  PTSUNNY   64  36  34 NW12      29.98F
SALT LAKE CITY PTSUNNY   65  36  34 W8        29.99R
VERNAL         MOSUNNY   65  25  22 SW3       29.97F
WENDOVER       CLOUDY    54  43  66 W12G20    30.05R
HEBER CITY     PTSUNNY   63  30  29 W8        29.99S
WEST JORDAN    MOSUNNY   61  39  44 NW5       30.00F

$$

UTZ012>022-026-027-260200-

SOUTHERN/CENTRAL UTAH

CITY           SKY/WX    TMP DP  RH WIND       PRES   REMARKS
BLANDING       MOSUNNY   68  14  12 S5        30.04F
BRYCE CANYON   PTSUNNY   56  12  17 S12       30.07S
CEDAR CITY     MOSUNNY   67  14  13 SW12      29.95F
DELTA          SUNNY     64  30  27 N16       29.95S
HANKSVILLE     SUNNY     75  10   8 S14       29.91F
MILFORD        MOSUNNY   69  17  13 SW12      29.93S
MOAB/CYNLANDS  SUNNY     75   4   6 W10       29.89F
PRICE          PTSUNNY   62  23  22 NW10      29.97F
ST GEORGE      MOCLDY    77  19  11 NW8       29.87F

$$

REGIONAL REPORTS     COLORADO/ARIZONA

CITY           SKY/WX    TMP DP  RH WIND       PRES   REMARKS
CRAIG, CO      MOSUNNY   64  27  24 W12       30.00F
GRAND JUNCTION MOSUNNY   72  15  11 W9        29.93F
RIFLE          SUNNY     70  21  15 W13       29.96F
MONTROSE       SUNNY     70   9   9 SW10      29.99F
CORTEZ         SUNNY     69  19  15 SW8       29.98F
PAGE, AZ       MOSUNNY   76  14   9 VRB5      29.87F
GRAND CANYON   MOSUNNY   64  15  15 SW15G24   30.03F
KINGMAN        MOSUNNY   74  17  11 SW24G31   29.91F
FLAGSTAFF      SUNNY     58  12  16 SW22G30   30.08F

$$

REGIONAL REPORTS    NEVADA/IDAHO/WYOMING

CITY           SKY/WX    TMP DP  RH WIND       PRES   REMARKS
LAS VEGAS, NV  MOSUNNY   75  31  19 W23       29.81S
ELY            PTSUNNY   52  31  44 NW9       30.06R
ELKO           CLOUDY    54  42  64 VRB5      30.06S THUNDER
POCATELLO, ID  PTSUNNY   55  43  63 S9        30.03S
BURLEY         MOSUNNY   60  40  47 S9        30.00S
EVANSTON, WY   CLOUDY    53  33  46 W13       30.07S THUNDER
ROCK SPRINGS   CLOUDY    47  34  60 SW20      30.09R
KEMMERER         N/A     46  34  61 W12       30.10R

$$






000
ASUS45 KSLC 251510
RWRUT

UTAH REGIONAL WEATHER ROUNDUP
NATIONAL WEATHER SERVICE SALT LAKE CITY UT
900 AM MDT WED MAY 25 2016

UTZ001>011-023>025-251600-

NORTHERN UTAH

CITY           SKY/WX    TMP DP  RH WIND       PRES   REMARKS
BRIGHAM CITY     N/A     50  44  77 CALM      30.02S
HILL AFB       PTSUNNY   53  42  67 E5        30.03R
LOGAN          CLOUDY    49  43  80 S6        30.02S
OGDEN          CLOUDY    54  42  64 S8        30.02R
PROVO AIRPORT  MOSUNNY   55  36  47 SE6       30.03S
SALT LAKE CITY PTSUNNY   60  41  49 CALM      30.02R
VERNAL         SUNNY     51  37  58 SE3       30.05S
WENDOVER       CLOUDY    54  37  54 SE7       30.04R
HEBER CITY     MOSUNNY   45  37  76 CALM      30.04F
WEST JORDAN    CLOUDY    52  41  66 S7        30.03R

$$

UTZ012>022-026-027-251600-

SOUTHERN/CENTRAL UTAH

CITY           SKY/WX    TMP DP  RH WIND       PRES   REMARKS
BRYCE CANYON   SUNNY     47  26  44 NE3       30.15R
CEDAR CITY     SUNNY     55  29  36 CALM      30.05S
DELTA          SUNNY     52  34  50 CALM      30.04S
HANKSVILLE     SUNNY     57  27  30 CALM      30.07R
MILFORD        SUNNY     56  27  32 S13       30.03S
MOAB/CYNLANDS  SUNNY     65  28  24 VRB6      30.02S
PRICE          SUNNY     53  29  39 SE8       30.06S
ST GEORGE      MOSUNNY   63  27  25 SE6       30.02R

$$

REGIONAL REPORTS     COLORADO/ARIZONA

CITY           SKY/WX    TMP DP  RH WIND       PRES   REMARKS
CRAIG, CO      SUNNY     53  37  54 N5        30.07S
GRAND JUNCTION SUNNY     60  26  27 NE3       30.05S
RIFLE          SUNNY     57  33  40 NE3       30.07S
MONTROSE       SUNNY     59  25  27 S3        30.11S
CORTEZ         SUNNY     58  25  28 CALM      30.14S
PAGE, AZ       SUNNY     61  22  22 NW3       30.05R
GRAND CANYON   SUNNY     53  18  25 SW12      30.13R
KINGMAN        SUNNY     62  26  25 W5        30.01R
FLAGSTAFF      SUNNY     51  25  36 SW14G21   30.14S

$$

REGIONAL REPORTS    NEVADA/IDAHO/WYOMING

CITY           SKY/WX    TMP DP  RH WIND       PRES   REMARKS
LAS VEGAS, NV  MOSUNNY   66  37  34 CALM      29.92R
ELY            SUNNY     43  37  79 S8        30.08R
ELKO           CLOUDY    47  41  80 CALM      30.06R
POCATELLO, ID  MOSUNNY   53  42  66 SW15      30.01R
BURLEY         MOSUNNY   55  41  59 W16G23    29.99S
EVANSTON, WY   MOSUNNY   44  35  70 SW13      30.07R
ROCK SPRINGS   SUNNY     48  33  56 SW15      30.05S
KEMMERER         N/A     45  37  76 W9        30.07R

$$






000
ASUS45 KSLC 251410
RWRUT

UTAH REGIONAL WEATHER ROUNDUP
NATIONAL WEATHER SERVICE SALT LAKE CITY UT
800 AM MDT WED MAY 25 2016

UTZ001>011-023>025-251500-

NORTHERN UTAH

CITY           SKY/WX    TMP DP  RH WIND       PRES   REMARKS
BRIGHAM CITY     N/A     48  43  80 CALM      30.01S
DUGWAY         PTSUNNY   50  39  67 SE3       30.04
HILL AFB       MOSUNNY   48  39  71 E8        30.02R
LOGAN          PTSUNNY   47  45  93 S3        30.02R
OGDEN          MOSUNNY   51  41  68 S8        30.01R
PROVO AIRPORT  MOSUNNY   48  36  61 SE6       30.03R
SALT LAKE CITY PTSUNNY   55  42  61 E3        30.01R
VERNAL         MOSUNNY   50  36  58 E5        30.05R
WENDOVER       CLOUDY    52  37  58 CALM      30.02R
HEBER CITY     MOSUNNY   41  37  87 CALM      30.05R
WEST JORDAN    CLOUDY    52  43  71 S9        30.02R

$$

UTZ012>022-026-027-251500-

SOUTHERN/CENTRAL UTAH

CITY           SKY/WX    TMP DP  RH WIND       PRES   REMARKS
BLANDING       SUNNY     51  30  43 E7        30.18R
BRYCE CANYON   SUNNY     38  25  59 W5        30.14R WCI  34
CEDAR CITY     SUNNY     51  26  37 SE3       30.05R
DELTA          MOSUNNY   48  34  57 CALM      30.03R
HANKSVILLE     SUNNY     52  28  40 CALM      30.07R
MILFORD        SUNNY     46  29  51 S5        30.03R
MOAB/CYNLANDS  SUNNY     62  28  27 CALM      30.02R
PRICE          SUNNY     50  28  42 CALM      30.06R
ST GEORGE      SUNNY     59  25  27 SE6       30.01R

$$

REGIONAL REPORTS     COLORADO/ARIZONA

CITY           SKY/WX    TMP DP  RH WIND       PRES   REMARKS
CRAIG, CO      SUNNY     49  39  68 E3        30.07R
GRAND JUNCTION CLOUDY    56  28  34 S3        30.05R
RIFLE          SUNNY     52  34  50 E3        30.07R
MONTROSE       CLOUDY    54  25  32 SE7       30.11R
CORTEZ         SUNNY     51  29  42 NE3       30.14R
PAGE, AZ       SUNNY     59  19  21 CALM      30.04R
GRAND CANYON   SUNNY     41  19  41 CALM      30.12F
KINGMAN        SUNNY     55  19  24 CALM      30.00R
FLAGSTAFF      SUNNY     47  24  40 NE3       30.14R

$$

REGIONAL REPORTS    NEVADA/IDAHO/WYOMING

CITY           SKY/WX    TMP DP  RH WIND       PRES   REMARKS
LAS VEGAS, NV  MOSUNNY   63  37  38 SW5       29.91R
ELY            MOSUNNY   35  32  88 S10       30.07R WCI  27
ELKO           CLOUDY    45  42  89 SW5       30.05R
POCATELLO, ID  CLOUDY    52  43  71 SW9       30.00R
BURLEY         CLOUDY    53  40  61 SW9       29.99R
EVANSTON, WY   PTSUNNY   39  33  79 SW6       30.06R WCI  35
ROCK SPRINGS   SUNNY     43  36  76 SW8       30.05R
KEMMERER         N/A     41  36  81 S3        30.06R

$$






000
ASUS45 KSLC 251210
RWRUT

UTAH REGIONAL WEATHER ROUNDUP
NATIONAL WEATHER SERVICE SALT LAKE CITY UT
600 AM MDT WED MAY 25 2016

UTZ001>011-023>025-251300-

NORTHERN UTAH

CITY           SKY/WX    TMP DP  RH WIND       PRES   REMARKS
BRIGHAM CITY     N/A     44  40  86 CALM      29.99R
HILL AFB       PTCLDY    46  38  75 E7        29.99R
LOGAN          MOCLDY    44  42  93 CALM      29.99R
OGDEN          PTCLDY    45  39  79 S7        29.98R
PROVO AIRPORT  PTCLDY    45  34  65 SE3       30.00R
SALT LAKE CITY PTCLDY    53  39  59 S7        29.97S
VERNAL         CLEAR     42  33  70 N6        30.02R
WENDOVER       MOCLDY    46  36  66 E5        29.99R
HEBER CITY     PTCLDY    36  34  93 CALM      30.02S
WEST JORDAN    MOCLDY    46  39  76 S6        30.00R

$$

UTZ012>022-026-027-251300-

SOUTHERN/CENTRAL UTAH

CITY           SKY/WX    TMP DP  RH WIND       PRES   REMARKS
BLANDING       PTCLDY    40  22  49 N7        30.14S
BRYCE CANYON   CLEAR     27  21  78 CALM      30.12R
CEDAR CITY     CLEAR     41  25  53 S3        30.03R
DELTA          MOCLDY    41  34  75 SW8       30.01R
HANKSVILLE     CLEAR     43  25  49 CALM      30.03R
MILFORD        PTCLDY    41  26  55 S8        30.01R
MOAB/CYNLANDS  CLEAR     52  28  39 W6        29.99R
PRICE          CLEAR     39  25  57 N7        30.03R WCI  34
ST GEORGE      MOSUNNY   55  25  30 CALM      29.98R

$$

REGIONAL REPORTS     COLORADO/ARIZONA

CITY           SKY/WX    TMP DP  RH WIND       PRES   REMARKS
CRAIG, CO      CLOUDY    42  34  73 CALM      30.04F
GRAND JUNCTION PTCLDY    50  29  44 E5        30.01R
RIFLE          PTCLDY    46  32  58 E6        30.03R
MONTROSE       CLEAR     46  23  40 SE3       30.09R
CORTEZ         CLEAR     43  24  47 NE8       30.10R
PAGE, AZ       CLEAR     53  23  31 CALM      30.01R
GRAND CANYON   CLEAR     26  15  63 CALM      30.12R
KINGMAN        CLEAR     46  15  28 SE7       29.97S
FLAGSTAFF      CLEAR     35  19  52 CALM      30.11S

$$

REGIONAL REPORTS    NEVADA/IDAHO/WYOMING

CITY           SKY/WX    TMP DP  RH WIND       PRES   REMARKS
LAS VEGAS, NV  CLEAR     62  36  37 SW3       29.88R
ELY            PTCLDY    32  30  92 S8        30.05S WCI  25
ELKO           CLOUDY    44  41  89 CALM      30.02S
POCATELLO, ID  LGT RAIN  46  44  93 E3        29.98R
BURLEY         CLOUDY    50  40  68 SW7       29.96R
EVANSTON, WY   CLOUDY    37  32  82 SW9       30.04R WCI  30
ROCK SPRINGS   CLOUDY    37  34  89 NE3       30.03R
KEMMERER         N/A     34  34 100 CALM      30.03S

$$






    US Dept of Commerce
    National Oceanic and Atmospheric Administration
    National Weather Service
    1325 East West Highway
    Silver Spring, MD 20910
    Page Author: NWS Internet Services Team
Disclaimer
Information Quality
Credits
Glossary
Privacy Policy
Freedom of Information Act (FOIA)
About Us
Career Opportunities